Location: Bu�n Treun
(12.1333°N, 108.3167°E)
Time: 13:21:42
(UTC+00:00)

GPS 2-14 Rocket1 - Pass Details

Date: 13 July 2020
Orbit: 476 x 541 km, 20.7° (Epoch: 06 August)

Event Time Altitude Azimuth Distance (km) Brightness Sun altitude
Exits shadow 21:27:15 13° 295° (WNW) 1,549 4.7 -14.7°
Maximum altitude 21:30:46 67° 16° (NNE) 569 3.0 -13.9°
Drops below altitude 10° 21:34:52 10° 100° (E) 1,772 6.3 -13.0°
Sets 21:37:10 0° 102° (ESE) 2,668 7.2 -12.5°
